Regional Weather Roundup
Issued by NWS Spokane, WA

Home | Current Version | Previous Version | Text Only | Print | Product List | Glossary On
Versions: 1 2 3 4 5 6 7 8 9 10 11 12 13 14 15 16 17 18 19 20 21 22 23 24 25 26 27 28 29 30 31 32 33 34 35 36 37 38 39 40 41 42 43 44 45 46 47 48 49 50
000
NZUS01 KOTX 300857
RWROTX

Eastern Washington/Northern Idaho Roundup
National Weather Service, Spokane WA
200 AM PDT THU MAR 30 2017

Note: "fair" indicated few or no clouds below 12,000 feet with no
significant weather and/or obstructions to visibility.

...Northeast Washington and Northern Idaho Panhandle...

CITY           SKY/WX    TMP DP  RH WIND       PRES   REMARKS
Spokane Intl   MOCLDY    43  39  86 W15       29.82R
Spokane Downto CLOUDY    46  42  86 SW6       29.84R
Deer Park      MOCLDY    41  40  96 S5        29.81S

...Southeast Washington and southern Idaho Panhandle...

CITY           SKY/WX    TMP DP  RH WIND       PRES   REMARKS
Walla Walla    MOCLDY    49  42  77 S10       29.91F
Pullman/Moscow MOCLDY    44  38  79 W7        29.88S
Lowell           N/A     44  41  89 CALM      29.90F

...Columbia Basin...

CITY           SKY/WX    TMP DP  RH WIND       PRES   REMARKS
Ephrata        CLEAR     45  31  58 NW6       29.84S
Moses Lake     CLEAR     41  32  70 W6        29.85S
Pasco          CLEAR     46  36  68 W10       29.91F
Hermiston      MOCLDY    48  42  80 SW10      29.92R
Pendleton      CLOUDY    46  40  79 W12       29.92S

...East Slopes Cascades...

CITY           SKY/WX    TMP DP  RH WIND       PRES   REMARKS
The Dalles     PTCLDY    48  38  68 NW20G26   30.01R
Yakima         CLEAR     45  35  68 N9        29.91S
Ellensburg     CLEAR     40  31  70 NW13      29.90S
Omak           CLEAR     44  33  65 SE6       29.81R
Sunnyside      SUNNY     37  33  85 N6        29.89F

...Southern British Columbia...

CITY           SKY/WX    TMP DP  RH WIND       PRES   REMARKS

...Western Montana...

CITY           SKY/WX    TMP DP  RH WIND       PRES   REMARKS
Missoula       CLOUDY    44  41  89 CALM      29.83F

...Neighboring Cities...

CITY           SKY/WX    TMP DP  RH WIND       PRES   REMARKS
Seattle        CLOUDY    45  40  82 SW9       30.04R
Portland       CLOUDY    47  39  74 NW9       30.12R
Boise          CLOUDY    47  45  93 CALM      29.89F
Great Falls    CLOUDY    44  32  62 SW15      29.72F



USA.gov is the U.S. government's official web portal to all federal, state and local government web resources and services.